Le nostre stazioni meteo in Italia

Pubblicità
Il mio iltempo24.it
Vieste, Italia (16266): Temperatura & dewpoint: 18.07.2019 07:00:00 - 24.07.2019 07:00:00 (CEST)Vieste, Italia (16266): velocità del vento: 18.07.2019 07:00:00 - 24.07.2019 07:00:00 (CEST)Vieste, Italia (16266): direzione del vento: 18.07.2019 07:00:00 - 24.07.2019 07:00:00 (CEST)Vieste, Italia (16266): reduced air pressure: 18.07.2019 07:00:00 - 24.07.2019 07:00:00 (CEST)Vieste, Italia (16266): precipitazioni: 18.07.2019 07:00:00 - 24.07.2019 07:00:00 (CEST)
Data & Tempo tt [°C] td [°C] ff [km/h] ff [kn] dd ppp [hPa] rr [mm]
24.07.2019 07:00:00 - - - - - - -
24.07.2019 06:00:00 25,3 18,4 5 3 NO 1015,3 -
24.07.2019 05:00:00 25,5 18,1 5 3 NNO 1015,3 -
24.07.2019 04:00:00 26,1 18,4 9 5 NO 1015,1 -
24.07.2019 03:00:00 26,5 18,0 8 4 NNO 1015,6 -
24.07.2019 02:00:00 26,9 16,7 9 5 N 1015,6 -
24.07.2019 01:00:00 27,1 16,0 11 6 ONO 1015,8 -
24.07.2019 00:00:00 27,2 15,8 8 4 NNO 1016,2 -
23.07.2019 23:00:00 27,3 15,9 9 5 NO 1016,3 -
23.07.2019 22:00:00 27,1 15,7 11 6 ONO 1016,4 -
23.07.2019 21:00:00 27,5 16,7 11 6 ONO 1016,5 -
23.07.2019 20:00:00 28,9 16,1 11 6 N 1016,3 -
23.07.2019 19:00:00 29,5 15,9 16 9 NNE 1016,4 -
23.07.2019 18:00:00 29,7 18,4 22 12 N 1016,4 -
23.07.2019 17:00:00 30,6 17,6 16 9 NNE 1016,6 -
23.07.2019 16:00:00 30,1 19,4 21 11 N 1017,0 -
23.07.2019 15:00:00 30,5 18,9 16 9 NNE 1017,2 -
23.07.2019 14:00:00 29,9 19,5 18 10 N 1017,7 -
23.07.2019 13:00:00 30,1 20,0 13 7 NO 1018,0 -
23.07.2019 12:00:00 29,8 21,7 21 11 NNE 1018,0 -
23.07.2019 11:00:00 29,7 21,3 15 8 NE 1017,8 -
23.07.2019 10:00:00 29,5 21,7 11 6 NNE 1017,7 -
23.07.2019 09:00:00 28,8 21,5 13 7 NNE 1017,5 -
23.07.2019 08:00:00 28,0 23,8 11 6 NNE 1017,4 -
23.07.2019 07:00:00 26,6 23,2 9 5 ONO 1016,9 -
23.07.2019 06:00:00 25,8 22,6 11 6 NNO 1017,1 -
23.07.2019 05:00:00 25,9 22,7 11 6 NNO 1016,8 -
23.07.2019 04:00:00 26,2 22,8 15 8 NNO 1017,1 -
23.07.2019 03:00:00 26,4 22,0 13 7 N 1017,5 -
23.07.2019 02:00:00 27,1 19,9 11 6 N 1017,7 -
23.07.2019 01:00:00 27,1 19,4 9 5 NNO 1018,0 -
23.07.2019 00:00:00 27,1 20,1 11 6 ONO 1018,5 -
22.07.2019 23:00:00 27,0 19,3 11 6 NO 1018,4 -
22.07.2019 22:00:00 27,3 18,8 11 6 ONO 1018,5 -
22.07.2019 21:00:00 27,6 20,4 9 5 ONO 1018,5 -
22.07.2019 20:00:00 28,6 20,3 13 7 N 1018,5 -
22.07.2019 19:00:00 29,5 20,6 18 10 N 1018,1 -
22.07.2019 18:00:00 29,5 20,6 22 12 NNO 1018,1 -
22.07.2019 17:00:00 30,9 21,4 22 12 N 1018,3 -
22.07.2019 16:00:00 30,9 23,5 18 10 N 1018,6 -
22.07.2019 15:00:00 32,0 20,9 22 12 NNE 1018,9 -
22.07.2019 14:00:00 32,2 19,8 18 10 NNO 1019,4 -
22.07.2019 13:00:00 32,0 20,3 16 9 N 1019,7 -
22.07.2019 12:00:00 31,5 18,5 22 12 N 1019,9 -
22.07.2019 11:00:00 30,7 20,0 24 13 NNE 1019,6 -
22.07.2019 10:00:00 31,1 17,7 16 9 NNE 1019,4 -
22.07.2019 09:00:00 30,1 18,2 13 7 NNO 1019,5 -
22.07.2019 08:00:00 28,5 19,4 13 7 NNO 1019,3 0,0
22.07.2019 07:00:00 26,4 17,4 8 4 NNO 1019,2 -
22.07.2019 06:00:00 24,2 18,3 9 5 NO 1019,0 -
22.07.2019 05:00:00 24,3 19,9 5 3 NO 1019,3 -
22.07.2019 04:00:00 23,4 18,6 4 2 ONO 1019,5 -
22.07.2019 03:00:00 22,8 14,5 2 1 SSO 1019,4 -
22.07.2019 02:00:00 23,1 14,6 2 1 NO 1019,3 -
22.07.2019 01:00:00 23,5 14,7 0 0 N 1019,7 -
22.07.2019 00:00:00 23,9 14,5 0 0 N 1019,6 -
21.07.2019 23:00:00 24,3 14,9 0 0 N 1019,4 -
21.07.2019 22:00:00 25,1 17,0 2 1 SO 1019,4 -
21.07.2019 21:00:00 26,1 19,4 2 1 ONO 1019,0 -
21.07.2019 20:00:00 28,0 20,2 2 1 E 1018,7 -
21.07.2019 19:00:00 28,5 20,2 4 2 E 1018,6 -
21.07.2019 18:00:00 29,3 21,0 4 2 ESE 1019,0 -
21.07.2019 17:00:00 29,7 21,6 4 2 NE 1019,2 -
21.07.2019 16:00:00 - - - - - - -
21.07.2019 15:00:00 29,5 20,3 5 3 E 1019,9 -
21.07.2019 14:00:00 29,2 20,6 5 3 E 1020,0 -
21.07.2019 13:00:00 29,3 20,4 8 4 ESE 1020,1 -
21.07.2019 12:00:00 29,6 22,0 5 3 E 1019,9 -
21.07.2019 11:00:00 28,1 21,3 5 3 NE 1019,8 -
21.07.2019 10:00:00 28,1 20,8 8 4 NE 1019,7 -
21.07.2019 09:00:00 27,7 20,2 8 4 NNE 1019,6 -
21.07.2019 08:00:00 27,4 19,9 0 0 N 1019,4 -
21.07.2019 07:00:00 23,5 16,9 0 0 N 1019,4 -
21.07.2019 06:00:00 21,2 14,3 0 0 N 1019,1 -
21.07.2019 05:00:00 21,1 14,2 2 1 OSO 1018,6 -
21.07.2019 04:00:00 21,0 13,8 2 1 NO 1018,8 -
21.07.2019 03:00:00 21,9 14,5 4 2 O 1018,8 -
21.07.2019 02:00:00 21,6 13,9 0 0 N 1019,3 -
21.07.2019 01:00:00 22,0 13,5 0 0 N 1019,3 -
21.07.2019 00:00:00 22,3 12,8 2 1 OSO 1019,1 -
20.07.2019 23:00:00 23,1 13,2 0 0 N 1018,9 -
20.07.2019 22:00:00 23,9 13,9 4 2 O 1018,8 -
20.07.2019 21:00:00 25,3 15,3 2 1 OSO 1018,3 -
20.07.2019 20:00:00 27,1 17,8 4 2 SO 1018,1 0,0
20.07.2019 19:00:00 28,0 18,6 5 3 S 1018,1 -
20.07.2019 18:00:00 28,4 19,3 8 4 S 1018,3 -
20.07.2019 17:00:00 29,0 20,1 8 4 SE 1018,6 -
20.07.2019 16:00:00 - - - - - - -
20.07.2019 15:00:00 29,1 21,5 9 5 S 1018,9 -
20.07.2019 14:00:00 28,6 21,3 9 5 SE 1018,9 -
20.07.2019 13:00:00 28,2 22,6 8 4 ESE 1019,1 -
20.07.2019 12:00:00 28,3 23,8 8 4 E 1019,0 -
20.07.2019 11:00:00 28,1 23,4 4 2 ENE 1018,9 -
20.07.2019 10:00:00 27,2 21,4 4 2 ENE 1018,5 -
20.07.2019 09:00:00 27,6 20,9 4 2 ENE 1018,1 -
20.07.2019 08:00:00 26,0 19,1 0 0 N 1017,8 -
20.07.2019 07:00:00 22,4 14,9 0 0 N 1017,5 -
20.07.2019 06:00:00 20,4 11,8 2 1 ONO 1017,2 -
20.07.2019 05:00:00 20,7 12,1 2 1 NO 1017,0 -
20.07.2019 04:00:00 20,9 12,5 2 1 ONO 1016,8 -
20.07.2019 03:00:00 20,9 13,0 2 1 O 1016,8 -
20.07.2019 02:00:00 21,2 15,0 0 0 N 1016,9 -
20.07.2019 01:00:00 21,4 14,0 0 0 N 1017,2 -
20.07.2019 00:00:00 22,0 14,3 0 0 N 1017,3 -
19.07.2019 23:00:00 22,9 14,6 5 3 O 1017,2 -
19.07.2019 22:00:00 23,5 18,5 4 2 O 1017,0 -
19.07.2019 21:00:00 24,7 19,5 0 0 N 1016,5 -
19.07.2019 20:00:00 26,1 20,4 2 1 ENE 1016,3 -
19.07.2019 19:00:00 26,8 19,9 2 1 E 1016,1 -
19.07.2019 18:00:00 27,2 20,2 4 2 E 1015,7 -
19.07.2019 17:00:00 27,8 20,6 5 3 E 1015,7 -
19.07.2019 16:00:00 27,8 20,8 5 3 E 1015,8 -
19.07.2019 15:00:00 27,7 21,2 5 3 ESE 1016,2 -
19.07.2019 14:00:00 28,1 22,3 5 3 E 1016,4 -
19.07.2019 13:00:00 27,5 22,4 5 3 E 1016,5 -
19.07.2019 12:00:00 27,5 23,3 5 3 E 1016,4 -
19.07.2019 11:00:00 26,7 22,5 9 5 ENE 1016,2 -
19.07.2019 10:00:00 26,0 21,8 9 5 NNO 1015,9 -
19.07.2019 09:00:00 25,7 21,1 11 6 NE 1015,5 -
19.07.2019 08:00:00 25,3 17,2 4 2 N 1015,0 -
19.07.2019 07:00:00 20,7 13,8 2 1 ONO 1014,6 -
19.07.2019 06:00:00 19,1 11,4 0 0 N 1014,2 -
19.07.2019 05:00:00 19,7 11,7 0 0 N 1013,8 -
19.07.2019 04:00:00 19,7 11,4 2 1 NO 1013,9 -
19.07.2019 03:00:00 20,0 12,9 0 0 N 1013,8 -
19.07.2019 02:00:00 19,8 12,9 0 0 N 1013,9 -
19.07.2019 01:00:00 20,6 14,4 0 0 N 1014,1 -
19.07.2019 00:00:00 21,3 16,4 0 0 N 1013,7 -
18.07.2019 23:00:00 22,5 17,6 0 0 N 1013,6 -
18.07.2019 22:00:00 23,0 16,9 4 2 SO 1013,4 -
18.07.2019 21:00:00 24,4 18,0 2 1 OSO 1012,7 -
18.07.2019 20:00:00 25,7 18,1 4 2 S 1012,1 -
18.07.2019 19:00:00 26,6 18,7 9 5 S 1011,6 -
18.07.2019 18:00:00 26,9 18,1 8 4 SE 1011,7 -
18.07.2019 17:00:00 27,2 17,6 8 4 ESE 1012,0 -
18.07.2019 16:00:00 - - - - - - -
18.07.2019 15:00:00 28,2 18,5 8 4 E 1012,4 -
18.07.2019 14:00:00 28,5 19,1 8 4 E 1012,6 -
18.07.2019 13:00:00 26,9 17,6 8 4 E 1012,5 -
18.07.2019 12:00:00 26,8 19,1 9 5 ENE 1012,5 -
18.07.2019 11:00:00 26,5 18,0 9 5 NNE 1012,4 -
18.07.2019 10:00:00 25,8 18,2 9 5 NNE 1011,9 -
18.07.2019 09:00:00 25,3 15,5 8 4 NE 1011,7 -
18.07.2019 08:00:00 24,8 13,9 0 0 N 1011,2 -
18.07.2019 07:00:00 20,9 12,3 0 0 N 1011,0 -

tt = Temperatura
td = dewpoint
ff = velocità del vento
dd = direzione del vento
ppp = reduced air pressure
rr = precipitazioni

Stazioni seguenti

WeatherPro
AMSI
MeteoEarth